Location: Peebles
(55.6412°N, 3.1714°W)
Time: 00:17:02
(UTC+00:00)

Meteor 2-20 Rocket - Visible Passes

Search period start: 28 January 2022 00:00
Search period end: 07 February 2022 00:00
Orbit: 941 x 959 km, 82.5° (Epoch: 27 January)

Date Brightness Start Highest point End Pass type
(mag) Time Alt. Az. Time Alt. Az. Time Alt. Az.
28 Jan 6.4 03:47:47 10° N 03:52:52 26° ENE 03:57:54 10° ESE visible
28 Jan 4.3 05:32:21 10° NNW 05:38:32 82° W 05:44:39 10° S visible
28 Jan 5.7 07:18:26 10° NW 07:22:31 19° WNW 07:26:35 10° WSW visible
28 Jan 5.3 17:22:36 10° SE 17:27:37 27° E 17:32:39 10° NNE visible
28 Jan 4.7 19:05:51 10° SSW 19:12:00 72° WNW 19:18:12 10° N visible
28 Jan 6.8 20:53:44 10° W 20:58:05 20° NW 21:02:27 10° N visible
29 Jan 7.3 02:23:06 10° NNE 02:23:55 10° NE 02:24:43 10° NE visible
29 Jan 5.9 04:05:21 10° N 04:10:58 35° ENE 04:16:30 10° SE visible
29 Jan 4.4 05:50:12 10° NNW 05:56:13 58° W 06:02:11 10° S visible
29 Jan 4.9 17:39:30 10° SSE 17:45:06 38° E 17:50:43 10° NNE visible
29 Jan 5.2 19:23:52 10° SW 19:29:53 52° WNW 19:35:55 10° N visible
29 Jan 7.1 21:13:04 10° WNW 21:16:23 15° NW 21:19:44 10° NNW visible
30 Jan 7.1 02:39:19 10° NNE 02:42:21 14° NE 02:45:20 10° ENE visible
30 Jan 5.3 04:23:00 10° N 04:28:57 48° ENE 04:34:51 10° SE visible
30 Jan 4.8 06:08:08 10° NNW 06:13:49 41° W 06:19:26 10° SSW visible
30 Jan 4.6 17:56:43 10° SSE 18:02:41 54° E 18:08:40 10° NNE visible
30 Jan 5.8 19:42:10 10° SW 19:47:51 37° WNW 19:53:34 10° N visible
30 Jan 7.3 21:33:10 10° NW 21:34:48 11° NW 21:36:25 10° NNW visible
31 Jan 6.8 02:56:32 10° N 03:00:40 18° NE 03:04:46 10° E visible
31 Jan 4.7 04:40:42 10° N 04:46:51 67° ENE 04:52:55 10° SSE visible
31 Jan 5.2 06:26:10 10° NNW 06:31:18 29° W 06:36:24 10° SW visible
31 Jan 4.4 18:14:12 10° S 18:20:20 76° E 18:26:31 10° NNE visible
31 Jan 6.3 20:00:43 10° WSW 20:05:55 28° WNW 20:11:09 10° N visible
01 Feb 6.4 03:13:57 10° N 03:18:53 24° NE 03:23:46 10° ESE visible
01 Feb 4.3 04:58:28 10° NNW 05:04:38 87° W 05:10:45 10° S visible
01 Feb 5.5 06:44:24 10° NNW 06:48:42 20° WNW 06:52:59 10° WSW visible
01 Feb 4.6 18:31:55 10° SSW 18:38:05 78° WNW 18:44:18 10° N visible
01 Feb 6.8 20:19:34 10° W 20:24:05 21° NW 20:28:38 10° N visible
02 Feb 5.9 03:31:30 10° N 03:36:59 33° ENE 03:42:26 10° SE visible
02 Feb 4.3 05:16:17 10° NNW 05:22:21 63° W 05:28:20 10° S visible
02 Feb 5.9 07:03:02 10° NW 07:06:01 14° WNW 07:09:00 10° WSW visible
02 Feb 5.2 18:49:54 10° SSW 18:55:57 56° WNW 19:02:01 10° N visible
02 Feb 7.1 20:38:47 10° W 20:42:22 16° NW 20:45:56 10° N visible
03 Feb 7.1 02:05:38 10° NNE 02:08:18 13° NE 02:10:57 10° ENE visible
03 Feb 5.4 03:49:08 10° N 03:55:00 45° ENE 04:00:49 10° SE visible
03 Feb 4.7 05:34:11 10° NNW 05:39:57 44° W 05:45:39 10° SSW visible
03 Feb 4.7 17:22:54 10° SSE 17:28:49 50° E 17:34:43 10° NNE visible
03 Feb 5.8 19:08:08 10° SW 19:13:53 40° WNW 19:19:42 10° N visible
03 Feb 7.3 20:58:38 10° WNW 21:00:45 12° NW 21:02:51 10° NNW visible
04 Feb 6.8 02:22:44 10° N 02:26:38 17° NE 02:30:31 10° E visible
04 Feb 4.8 04:06:49 10° N 04:12:55 62° ENE 04:18:58 10° SSE visible
04 Feb 5.1 05:52:12 10° NNW 05:57:28 31° W 06:02:42 10° SW visible
04 Feb 4.5 17:40:20 10° S 17:46:27 71° E 17:52:35 10° NNE visible
04 Feb 6.3 19:26:37 10° WSW 19:31:57 30° WNW 19:37:17 10° N visible
05 Feb 6.5 02:40:08 10° N 02:44:53 23° NE 02:49:36 10° ESE visible
05 Feb 4.3 04:24:33 10° NNW 04:30:44 87° ENE 04:36:51 10° SSE visible
05 Feb 5.4 06:10:23 10° NNW 06:14:54 22° W 06:19:23 10° SW visible
05 Feb 4.6 17:58:01 10° SSW 18:04:12 83° WNW 18:10:24 10° NNE visible
05 Feb 6.7 19:45:24 10° WSW 19:50:06 22° NW 19:54:48 10° N visible
06 Feb 6.0 02:57:39 10° N 03:03:01 30° ENE 03:08:20 10° ESE visible
06 Feb 4.6 04:42:21 10° NNW 04:52:35 21° S 04:54:29 10° S visible
06 Feb 5.9 06:28:53 10° NW 06:36:57 - WSW 06:31:07 15° WNW visible
06 Feb 5.1 18:15:57 10° SSW 18:22:01 60° WNW 18:28:08 10° N visible
06 Feb 7.1 20:04:32 10° W 20:08:20 17° NW 20:12:10 10° N visible
